M0ADS Weather Reports


time (UTC)temp
C
wind
direction
speed
KPH
gust
KPH
rain 1hr
cm
rain 24hr
cm
rain mn
cm
humidity
%
barometer
mb
20260502130515 18 262 0.0 9.7 0.00 0.00 0.00 52 1013.8
20260502123515 19 127 0.0 12.9 0.00 0.00 0.00 54 1014.1
20260502122015 18 82 0.0 6.4 0.00 0.00 0.00 54 1014.3
20260502120514 18 135 0.0 8.0 0.00 0.00 0.00 55 1014.7
20260502115015 18 310 0.0 8.0 0.00 0.00 0.00 55 1014.9
20260502113515 17 276 1.6 11.3 0.00 0.00 0.00 60 1015.2
20260502112015 17 275 1.6 9.7 0.00 0.00 0.00 59 1015.0
20260502110514 16 295 0.0 6.4 0.00 0.00 0.00 62 1015.4
20260502105014 16 306 0.0 6.4 0.00 0.00 0.00 60 1015.4
20260502103513 17 255 0.0 6.4 0.00 0.00 0.00 62 1015.5
20260502102013 16 193 0.0 1.6 0.00 0.00 0.00 63 1015.5
20260502100511 16 193 0.0 1.6 0.00 0.00 0.00 63 1015.6
20260502090510 15 270 0.0 3.2 0.00 0.00 0.00 71 1016.1
20260502070506 11 273 0.0 4.8 0.00 0.00 0.00 81 1016.2
20260502065006 11 279 0.0 0.0 0.00 0.00 0.00 82 1016.1
20260502063503 11 279 0.0 1.6 0.00 0.00 0.00 83 1016.0
20260502062003 10 279 0.0 0.0 0.00 0.00 0.00 85 1016.1
20260502060503 10 279 0.0 0.0 0.00 0.00 0.00 87 1016.2
20260502055004 9 279 0.0 0.0 0.00 0.00 0.00 87 1016.2
20260502053501 9 279 0.0 3.2 0.00 0.00 0.00 87 1016.1
20260502052001 8 279 0.0 3.2 0.00 0.00 0.00 88 1016.2
20260502050459 8 286 0.0 4.8 0.00 0.00 0.00 88 1016.1
20260502045000 8 281 0.0 0.0 0.00 0.00 0.00 88 1016.3
20260502043459 8 281 0.0 1.6 0.00 0.00 0.00 88 1016.2
20260502041959 8 281 0.0 0.0 0.00 0.00 0.00 88 1016.2
20260502040458 8 281 0.0 0.0 0.00 0.00 0.00 87 1016.2
20260502034959 9 281 0.0 0.0 0.00 0.00 0.00 87 1016.4
20260502033459 9 281 0.0 1.6 0.00 0.00 0.00 87 1016.4
20260502031956 9 281 0.0 0.0 0.00 0.00 0.00 87 1016.5
20260502030457 9 281 0.0 0.0 0.00 0.00 0.00 86 1016.5
20260502024955 10 281 0.0 0.0 0.00 0.00 0.00 86 1016.5
20260502023455 10 281 0.0 0.0 0.00 0.00 0.00 85 1016.5
20260502021955 10 281 0.0 0.0 0.00 0.00 0.00 84 1016.4
20260502020455 11 281 0.0 0.0 0.00 0.00 0.00 84 1016.7
20260502014955 11 281 0.0 0.0 0.00 0.00 0.00 83 1016.8
20260502013454 11 281 0.0 1.6 0.00 0.00 0.00 83 1016.9
20260502011955 11 281 0.0 0.0 0.00 0.00 0.00 82 1017.0
20260502010454 11 281 0.0 0.0 0.00 0.00 0.00 82 1017.2
20260502004952 11 281 0.0 4.8 0.00 0.00 0.00 81 1017.3
20260502003450 11 281 0.0 3.2 0.00 0.00 0.00 82 1017.2
20260502001948 11 281 0.0 3.2 0.00 0.00 0.00 82 1017.3
20260502000448 11 281 0.0 9.7 0.00 0.00 0.00 82 1017.4
20260501234948 11 270 0.0 6.4 0.00 0.00 0.00 82 1017.4
20260501233448 11 256 0.0 0.0 0.00 0.00 0.00 82 1017.5
20260501231948 12 256 0.0 0.0 0.00 0.00 0.00 81 1017.5
20260501230447 12 256 0.0 0.0 0.00 0.00 0.00 81 1017.5
20260501224948 12 256 0.0 0.0 0.00 0.00 0.00 82 1017.5
20260501223448 12 256 0.0 1.6 0.00 0.00 0.00 81 1017.5
20260501221946 12 256 0.0 0.0 0.00 0.00 0.00 81 1017.3
20260501220446 12 256 0.0 0.0 0.00 0.00 0.00 80 1017.3
20260501214946 13 256 0.0 1.6 0.00 0.00 0.00 79 1017.3
20260501213446 13 256 1.6 9.7 0.00 0.00 0.00 78 1017.2
20260501211944 13 282 1.6 11.3 0.00 0.00 0.00 77 1017.1
20260501210443 13 273 0.0 0.0 0.00 0.00 0.00 75 1017.1
20260501204943 14 273 0.0 0.0 0.00 0.00 0.00 74 1017.0
20260501203441 15 273 0.0 4.8 0.00 0.00 0.00 72 1017.0
20260501201941 15 271 0.0 0.0 0.00 0.00 0.00 71 1017.0
20260501200443 15 270 0.0 1.6 0.00 0.00 0.00 69 1016.9
20260501194940 15 270 0.0 0.0 0.00 0.00 0.00 68 1016.9
20260501193439 16 270 0.0 0.0 0.00 0.00 0.00 67 1016.8
20260501191939 16 270 0.0 0.0 0.00 0.00 0.00 66 1016.8
20260501190439 16 270 0.0 6.4 0.00 0.00 0.00 65 1016.9
20260501184939 16 242 1.6 12.9 0.00 0.00 0.00 65 1016.7
20260501183439 17 250 1.6 16.1 0.00 0.00 0.00 63 1016.4
20260501181939 18 273 1.6 14.5 0.00 0.00 0.00 61 1016.3
20260501180438 18 259 3.2 17.7 0.00 0.00 0.00 59 1016.3
20260501174939 20 265 1.6 14.5 0.00 0.00 0.00 54 1016.1
20260501173439 22 286 1.6 16.1 0.00 0.00 0.00 52 1016.1
20260501171939 22 300 0.0 1.6 0.00 0.00 0.00 51 1016.0
20260501170439 22 298 0.0 3.2 0.00 0.00 0.00 51 1016.2
20260501164937 22 302 0.0 4.8 0.00 0.00 0.00 50 1016.3
20260501163437 22 288 0.0 4.8 0.00 0.00 0.00 50 1016.4
20260501161937 22 211 0.0 6.4 0.00 0.00 0.00 49 1016.5
20260501160437 23 284 0.0 4.8 0.00 0.00 0.00 48 1016.5
20260501154937 22 282 1.6 19.3 0.00 0.00 0.00 50 1016.6
20260501153434 23 78 0.0 14.5 0.00 0.00 0.00 48 1016.7
20260501151935 23 277 1.6 6.4 0.00 0.00 0.00 47 1016.8
20260501150433 23 149 0.0 11.3 0.00 0.00 0.00 48 1016.9